Location: Hurstbourne Priors
(51.2000°N, 1.3667°W)
Time: 19:02:11
(UTC+00:00)

Transit 4A - Pass Details

Date: 26 April 2021
Orbit: 870 x 974 km, 66.8° (Epoch: 09 May)

Event Time Altitude Azimuth Distance (km) Brightness Sun altitude
Rises 05:27:41 0° 321° (NW) 3,535 10.7 5.1°
Reaches altitude 10° 05:30:20 10° 328° (NNW) 2,576 10.1 5.5°
Maximum altitude 05:36:03 46° 41° (NE) 1,175 9.2 6.4°
Drops below altitude 10° 05:41:38 10° 114° (ESE) 2,522 11.2 7.2°
Sets 05:44:12 0° 121° (ESE) 3,453 11.7 7.6°
